Regional Weather Roundup
Issued by NWS Grand Forks, ND

Home | Current Version | Previous Version | Text Only | Print | Product List | Glossary Off
Versions: 1 2 3 4 5 6 7 8 9 10 11 12 13 14 15 16 17 18 19 20 21 22 23 24 25 26 27 28 29 30 31 32 33 34 35 36 37 38 39 40 41 42 43 44 45 46 47 48 49 50

000
ASUS43 KFGF 291931
RWRFGF
PRAIRIE TO PINES  WEATHER ROUNDUP
NATIONAL WEATHER SERVICE EASTERN NORTH DAKOTA/GRAND FORKS ND
100 PM CST THU JAN 29 2015

 **SATELLITE DATA USED TO AUGMENT SKY COVER AT AUTOMATED STATIONS**
 *****  WEATHER ACROSS EASTERN NORTH DAKOTA  *****

CITY           SKY/WX    TMP DP  RH WIND       PRES   REMARKS
GRAND FORKS    FLURRIES  14   4  64 N17       30.52S WCI  -3
GRAND FRKS AFB FLURRIES  14   3  62 N15G21    30.52S WCI  -1
GRAND FRKS NWS   N/A     12 N/A N/A N13         N/A  WCI  -3
DEVILS LAKE    CLOUDY    14   7  73 NW9       30.48S WCI   2
FARGO          CLOUDY    18   7  62 N23       30.50S WCI   0
WAHPETON ARPT  CLOUDY    18  10  73 N21G33    30.48R WCI   1
$$

 ***** WEATHER ACROSS CENTRAL AND WESTERN NORTH DAKOTA  *****

CITY           SKY/WX    TMP DP  RH WIND       PRES   REMARKS
BISMARCK       CLOUDY    28  20  71 NW7       30.49F WCI  21
MINOT          CLOUDY    19  11  70 NW16G23   30.49F WCI   4
JAMESTOWN      FLURRIES  19  11  70 NW15      30.47F WCI   5
MINOT AFB      CLOUDY    18  15  88 VRB6      30.49F WCI   9
GARRISON         N/A     25  18  74 N8        30.47S WCI  16
WILLISTON      MOSUNNY   28  19  69 VRB5      30.46F WCI  23
DICKINSON      SUNNY     33  21  61 NW12      30.42F WCI  24
HETTINGER      SUNNY     36  19  50 NW9       30.44F
$$

 *****  OTHER AIRPORT OBSERVATIONS IN OUR AREA  *****

CITY           SKY/WX    TMP DP  RH WIND       PRES   REMARKS
WALHALLA         N/A      9   1  72 NW17G23   30.54S WCI -10
GRAFTON AIRPOR NOT AVBL
VALLEY CITY AR FLURRIES  18  14  86 N15G22    30.48S WCI   3
CANDO          MOCLDY    14   7  73 N8        30.50S WCI   3
CAVALIER APRT  FAIR       9   1  72 N16       30.53F WCI  -9
GWINNER        CLOUDY    23  21  93 N12       30.49R WCI  12
SHEYENNE NWR     N/A     21  10  63 N13       29.95S WCI   9
ROLLA          FLURRIES   9   7  92 N13       30.48S WCI  -7
 ***** THE ABOVE OBSERVATIONS ARE NON NWS ARE NOT QUALITY
       CONTROLLED AND MAY MIS-REPORT RAIN FOR SNOW...
$$

  *****  WEATHER ACROSS NORTHERN MINNESOTA  *****

CITY           SKY/WX    TMP DP  RH WIND       PRES   REMARKS
FLAG ISLAND    MOSUNNY    5  -2  72 NW20      30.40S WCI -15
WARROAD        SUNNY      9   1  72 NW16      30.42S WCI  -9
ROSEAU         SUNNY     10   3  72 NW9       30.43F WCI  -2
HALLOCK        CLOUDY     7   1  78 N17G23    30.51F WCI -12
THF RVR FALLS  MOSUNNY    9   3  78 NW15      30.45S WCI  -8
BAUDETTE       MOSUNNY    8   0  69 NW17G25   30.37S WCI -10
WASKISH        MOSUNNY   12   5  73 W9        30.37S WCI   0
CROOKSTON      MOSUNNY   10   5  79 N23G29    30.51S WCI -10
STEPHEN NDAWN    N/A      9   1  72 N18         N/A  WCI -10
GREENBUSH NDAW   N/A      9   1  72 NW18        N/A  WCI -10
$$
  *****  WEATHER ACROSS CENTRAL AND WEST MINNESOTA  *****

CITY           SKY/WX    TMP DP  RH WIND       PRES   REMARKS
FOSSTON        PTSUNNY   12   7  79 NW13G22   30.43S WCI  -3
BEMIDJI        CLOUDY    12   6  78 NW13G24   30.36S WCI  -3
PARK RAPIDS    PTSUNNY   16   9  74 NW18G32   30.34R WCI   0
ELBOW LAKE     LGT SNOW  16  11  81 N23G30    30.42R WCI  -2
WADENA         NOT AVBL
DETROIT LAKES  LGT SNOW  14  10  85 N20G26    30.42R WCI  -3
MOORHEAD       MIX PCPN  16  10  79 N22       30.50S WCI  -2
FERGUS FALLS   LGT SNOW  16   7  67 N23G35    30.47S WCI  -2
MORRIS MN      LGT SNOW  21  14  73 NW26G33   30.40S WCI   4
STAPLES        PTSUNNY   18  10  73 NW20G28   30.33S WCI   1
$$
  *****  WEATHER ELSEWHERE ACROSS MINNESOTA  *****

CITY           SKY/WX    TMP DP  RH WIND       PRES   REMARKS
DULUTH         LGT SNOW  20  10  65 NW15G29   30.17R WCI   6
INTRNTL FALLS  CLOUDY    11   3  70 NW15      30.30R WCI  -5
ELY            LGT SNOW  16   9  73 NW16G25   30.18R WCI   0
CLOQUET        FLURRIES  19  12  73 NW17      30.20R WCI   4
WHEATON        FLURRIES  19  14  79 N17       30.48R WCI   4
BRAINERD       MIX PCPN  20  11  68 NW22G28   30.30R WCI   3
HIBBING        MIX PCPN  15   6  67 NW22G28   30.23R WCI  -3
ALEXANDRIA     FLURRIES  20  11  68 NW22G33   30.36R WCI   3
SAINT CLOUD    CLOUDY    24  15  68 NW21G30   30.29R WCI   9
MINNEAPOLIS    CLOUDY    30  19  63 NW25G32   30.25R WCI  16
$$

  *****  WEATHER ACROSS SOUTH DAKOTA  *****

CITY           SKY/WX    TMP DP  RH WIND       PRES   REMARKS
SIOUX FALLS    CLOUDY    31  24  75 N21       30.41S WCI  18
BROOKINGS      NOT AVBL
WATERTOWN      CLOUDY    25  19  78 N21       30.40S WCI  11
HURON          CLOUDY    31  21  66 NW16G25   30.47S WCI  20
SISSETON         N/A     23  19  85 N18       30.44R WCI   9
ABERDEEN       CLOUDY    26  18  71 N17       30.50R WCI  13
MITCHELL       CLOUDY    32  22  66 N22G29    30.48S WCI  19
PIERRE         MOSUNNY   37  23  56 NW13      30.47F
MOBRIDGE       MOSUNNY   34  20  56 NW15      30.44F WCI  24
RAPID CITY     SUNNY     45  11  25 N10       30.45F
$$

  *****  SOME WEATHER IN NEARBY STATES *****

CITY           SKY/WX    TMP DP  RH WIND       PRES   REMARKS
GLASGOW MT     FOG       28  27  96 SE10      30.40F VSB<1/4 WCI  19
GREAT FALLS MT MOSUNNY   46  24  42 SW12      30.28F
CHEYENNE WY    PTSUNNY   40  24  53 SW6       30.45F
SCOTTSBLUFF NE SUNNY     45  20  36 W8        30.48F
OMAHA NE       CLOUDY    39  26  59 N23G33    30.39S
DES MOINES IA  CLOUDY    37  25  61 N17       30.29S
DAVENPORT IA   CLOUDY    35  28  75 NW15      30.10R
CHICAGO IL     CLOUDY    33  26  75 NW16G25   29.95R WCI  23
EAU CLAIRE WI  CLOUDY    33  21  61 NW9G21    30.12S
LA CROSSE WI   CLOUDY    37  25  61 NW18      30.11R
$$

  *****  SOME NATIONAL WEATHER *****

CITY           SKY/WX    TMP DP  RH WIND       PRES   REMARKS
LA GUARDIA NY  CLOUDY    31  13  47 S6        30.21F
RALEIGH NC     CLOUDY    46  15  28 SW10      30.21F
ATLANTA GA     PTSUNNY   56  28  34 SW12      30.17F
NEW ORLEANS LA MOSUNNY   73  56  54 W12       30.22F
OKLAHOMA CITY  PTSUNNY   51  30  44 N24G32    30.40S
ALBUQUERQUE NM CLOUDY    52  25  35 E28G33    30.40F
SALT LAKE CITY PTSUNNY   40  35  83 NW6       30.35F
LOS ANGELES CA CLOUDY    70  45  40 CALM      30.06F
BOISE ID       CLOUDY    42  34  73 CALM      30.43S
SEATTLE WA     MOSUNNY   48  39  71 N8        30.36R
$$

*** WEATHER ACROSS MANITOBA...SASKATCHEWAN AND ONTARIO ***
                ***ONTARIO***

CITY           SKY/WX    TMP DP  RH WIND       PRES   REMARKS
GERALDTON      FLURRIES   3  -4  72 NW16G23   30.04R WCI -16
THUNDER BAY    MOSUNNY   18   5  57 NW21G30   30.12R WCI   1
SIOUX LOOKOUT  FLURRIES   5  -2  72 N10G18    30.26R WCI -10
TORONTO        LGT SNOW  28  27  93 S6        29.73F WCI  22
BIG TROUT LK   LGT SNOW  -8 -17  65 NW12G20   30.25F WCI -27
PICKLE LAKE    CRYSTALS   0  -9  65 NW6       30.21R WCI -12
DRYDEN         CLOUDY     7   0  72 NW10G20   30.28R WCI  -8
KENORA         LGT SNOW   5   0  78 NW12G21   30.35R DRFTSNOWWCI -11
$$
                *** MANITOBA***

CITY           SKY/WX    TMP DP  RH WIND       PRES   REMARKS
BRANDON        FLURRIES   7   1  78 E9        30.53F WCI  -7
DAUPHIN        SUNNY      0  -8  71 S5        30.58F WCI -10
ISLAND LAKE    SUNNY     -9 -17  70 W14       30.42S WCI -31
PILOT MOUND      N/A      5   1  85 N12         N/A  WCI -11
THE PAS        MOSUNNY   -6 -15  65 W6        30.56F WCI -18
THOMPSON       SUNNY     -8 -18  59 W12       30.44F WCI -27
WINNIPEG       MOSUNNY    3  -4  72 NW17G23   30.55F WCI -17
LYNN LAKE      FLURRIES -11 -18  70 W9        30.40F WCI -29
CHURCHILL      CRYSTALS -15 -24  64 NW20      30.23F WCI -41
GILLAM         MOSUNNY  -11 -22  58 W14       30.33F WCI -33
$$
                ***SASKATCHEWAN***

CITY           SKY/WX    TMP DP  RH WIND       PRES   REMARKS
ESTEVAN        FLURRIES  16  10  79 CALM      30.47F
KINDERSLEY     MOSUNNY   18  12  79 SE9       30.33F WCI   6
LLOYDMINSTER   PTSUNNY   10   5  79 S14       30.31F WCI  -5
PRINCE ALBERT  FLURRIES   1  -4  78 S6        30.50  WCI -10
REGINA         FLURRIES  14  10  85 SE7       30.46F WCI   4
YORKTON        CLOUDY     5   0  78 CALM      30.49F
N. BATTLEFORD  SUNNY     12   9  85 SE12      30.42F WCI  -2
LA RONGE       PTSUNNY   -8 -13  77 SW5       30.48  WCI -19
SASKATOON      FLURRIES  10   5  79 S5        30.47F WCI   2
SWIFT CURRENT  MOSUNNY   25  23  93 SE10      30.32F WCI  15
$$
NOTE: THESE ARE AUTOMATED STATIONS WITH LIMITED QUALITY CONTROL
      "FAIR" INDICATES FEW OR NO CLOUDS BELOW 12,000 FEET WITH NO
      SIGNIFICANT WEATHER AND/OR OBSTRUCTIONS TO VISIBILITY.
      SKY/WX - SKY CONDITION AND SIGNIFICANT WEATHER.
      TMP - AIR TEMPERATURE.    DP   - DEWPOINT TEMPERATURE.
      RH  - RELATIVE HUMIDITY.  PRES - PRESSURE.
      HX  - HEAT INDEX.         WCI  - WIND CHILL INDEX.
$



USA.gov is the U.S. government's official web portal to all federal, state and local government web resources and services.